Location: Unspecified
(42.9300°N, 71.1866°W)
Time: 19:29:01
(UTC-04:00)

Envisat - Visible Passes

Search period start: 31 July 2015 00:00
Search period end: 10 August 2015 00:00
Orbit: 765 x 766 km, 98.3° (Epoch: 31 July)

Date Brightness Start Highest point End Pass type
(mag) Time Alt. Az. Time Alt. Az. Time Alt. Az.
31 Jul 3.4 21:08:20 13° SE 21:12:39 46° ENE 21:17:31 10° N visible
31 Jul 5.0 22:48:33 12° SW 22:51:57 22° W 22:55:47 10° NW visible
01 Aug 4.4 20:32:26 10° ESE 20:36:16 23° ENE 20:40:13 10° NNE visible
01 Aug 3.8 22:11:33 19° SSW 22:15:01 47° W 22:19:55 10° NNW visible
02 Aug 2.9 21:34:32 18° SSE 21:38:20 80° ENE 21:43:26 10° N visible
02 Aug 5.5 23:15:52 10° WSW 23:18:05 12° W 23:20:00 10° WNW visible
03 Aug 3.7 20:57:32 12° SE 21:01:49 37° ENE 21:06:30 10° N visible
03 Aug 4.7 22:37:45 15° SW 22:40:57 27° W 22:45:14 10° NW visible
04 Aug 3.4 22:00:45 21° S 22:04:06 60° W 22:09:08 10° NNW visible
05 Aug 3.1 21:23:46 18° SSE 21:27:28 64° ENE 21:32:31 10° N visible
05 Aug 5.4 23:03:59 10° SW 23:07:02 16° W 23:09:58 10° NW visible
06 Aug 4.0 20:46:45 10° SE 20:51:01 30° ENE 20:55:27 10° N visible
06 Aug 4.3 22:26:58 19° SSW 22:29:59 34° W 22:34:35 10° NNW visible
07 Aug 3.1 21:49:58 23° S 21:53:12 75° WSW 21:58:19 10° NNW visible
08 Aug 3.3 21:12:59 17° SE 21:16:38 51° ENE 21:21:34 10° N visible
08 Aug 5.1 22:53:12 14° SW 22:56:00 20° W 22:59:37 10° NW visible
09 Aug 4.3 20:36:14 10° ESE 20:40:13 25° ENE 20:44:20 10° NNE visible
09 Aug 3.9 22:16:12 22° SSW 22:19:02 43° W 22:23:52 10° NNW visible
